This is the latest recevied weather packets stored in our database for station/object KM5R. If no packets are shown the sender has not sent any weather packets the latest 10 day(s).
| Time | Temp. | Humidity | Pressure | Rain* | Wind** | Luminosity | Snow |
|---|---|---|---|---|---|---|---|
| 1777899904 | 16.67° C | 77% | 1015.4 hPa | 0 mm | - | 103 W/m² | - |
| 1777899601 | 16.67° C | 78% | 1015.5 hPa | 0 mm | - | 96 W/m² | - |
| 1777899299 | 16.67° C | 78% | 1015.5 hPa | 0 mm | - | 89 W/m² | - |
| 1777898996 | 16.11° C | 79% | 1015.6 hPa | 0 mm | - | 80 W/m² | - |
| 1777898693 | 16.11° C | 79% | 1015.6 hPa | 0 mm | - | 72 W/m² | - |
| 1777898390 | 15.56° C | 79% | 1015.5 hPa | 0 mm | - | 57 W/m² | - |
| 1777898088 | 15.56° C | 79% | 1015.4 hPa | 0 mm | - | 47 W/m² | - |
| 1777897784 | 15.56° C | 80% | 1015 hPa | 0 mm | - | 34 W/m² | - |
| 1777897480 | 15.56° C | 80% | 1015.3 hPa | 0 mm | - | 32 W/m² | - |
| 1777897176 | 15° C | 80% | 1015.4 hPa | 0 mm | - | 22 W/m² | - |
| 1777896873 | 15° C | 80% | 1015.3 hPa | 0 mm | - | 21 W/m² | - |
| 1777896570 | 15° C | 81% | 1015.3 hPa | 0 mm | - | 15 W/m² | - |
| 1777896267 | 15° C | 80% | 1014.9 hPa | 0 mm | - | 10 W/m² | - |
| 1777895965 | 15° C | 80% | 1014.8 hPa | 0 mm | - | 7 W/m² | - |
| 1777895663 | 15° C | 80% | 1015 hPa | 0 mm | - | 5 W/m² | - |
| 1777895360 | 15° C | 80% | 1014.8 hPa | 0 mm | - | 4 W/m² | - |
| 1777895058 | 15° C | 80% | 1014.9 hPa | 0 mm | - | 2 W/m² | - |
| 1777894754 | 15° C | 80% | 1015 hPa | 0 mm | - | 1 W/m² | - |
| 1777894452 | 15° C | 80% | 1015.1 hPa | 0 mm | - | 0 W/m² | - |
| 1777894149 | 15° C | 80% | 1015.1 hPa | 0 mm | - | 0 W/m² | - |
| 1777893846 | 15° C | 80% | 1015.1 hPa | 0 mm | - | 0 W/m² | - |
| 1777893542 | 15° C | 80% | 1015 hPa | 0 mm | - | 0 W/m² | - |
| 1777893238 | 14.44° C | 80% | 1015.3 hPa | 0 mm | - | 0 W/m² | - |
| 1777892935 | 14.44° C | 80% | 1015.3 hPa | 0 mm | - | 0 W/m² | - |
| 1777892631 | 14.44° C | 80% | 1015 hPa | 0 mm | - | 0 W/m² | - |
* Rain latest hour (hover to see other rain measurements)
** Current wind speed in m/s (hover to see current wind gust speed)